www.pogodaiklimat.ru

Погода и климат >> Архив погоды >> Казахстан >> Жангизтобе


ПОГОДА в Жангизтобе

  • Прогноз погоды в Жангизтобе
  • Монитор погоды в Жангизтобе
  • Климат города

АРХИВ ПОГОДЫ в Жангизтобе

Время (UTC), дата Ветер
(напр.,м/с)
 
Видим.   Явления Облачность Т
(С)
Тd
(С)
f
(%)
Тe
(С)
Тes
(С)
Комфортность P
(гПа)
Po
(гПа)
Тmin
(С)
Tmax
(С)
R
(мм)
S
(см)
09 16.03 С 1 50 км 10/0
[Ac As]
-7.8 -10.0 84 -10 -8 1031.0 973.0
12 16.03 С 1 50 км 10/0
[Ac As]
-7.9 -9.7 87 -10 -10 1031.7 973.6
15 16.03 С 1 н/о дымка 10/0
[Ac As]
-7.9 -9.3 90 -10 -10 1032.1 974.0 -6.9
18 16.03 З 1 н/о дымка 6/0
[Ac As Ci fib]
-12.0 -13.3 90 -14 -14 1033.1 974.0 -6.9
21 16.03 З 1 н/о слабый снег 10/0
[As op]
-12.8 -14.2 89 -15 -15 1032.5 973.3
00 17.03 З 1 н/о слабый снег 10/0
[As op]
-12.6 -14.2 88 -15 -15 1032.6 973.4
03 17.03 З 2 50 км {снег} 10/0
[As op]
-13.7 -15.8 84 -18 -18 1033.2 973.8 4
06 17.03 З 2 50 км {снег} 8/0
[Ac trans Ci fib]
-13.0 -17.0 72 -18 -12 1032.8 973.5 -14.1 0.5
09 17.03 СЗ 2 50 км 10/0
[Ac As]
-10.5 -13.4 79 -15 -13 1031.5 972.9
12 17.03 СЗ 1 50 км {снег} 6/0
[Ac lent Ci sp]
-11.3 -14.2 79 -14 -13 1031.8 973.0
15 17.03 З 2 н/о 10/0
[As op]
-12.7 -15.4 80 -17 -17 1032.6 973.4 -10.0
18 17.03 З 1 н/о 10/0
[As op]
-13.3 -15.7 82 -16 -16 1032.5 973.2 -10.0 0.0
21 17.03 З 1 н/о 8/0
[Ac trans Ci fib]
-14.4 -16.8 82 -17 -17 1031.6 972.1
00 18.03 З 2 н/о 6/0
[Ac lent Ci fib]
-16.6 -19.2 80 -22 -22 1032.1 972.1
03 18.03 З 2 50 км 3/0
[Ci fib]
-15.7 -18.5 79 -21 -18 1032.9 973.0 4
06 18.03 З 2 50 км 8/0
[Ac trans]
-14.0 -18.0 72 -19 -13 1032.8 973.3 -16.7
09 18.03 З 1 50 км 8/0
[Ac trans]
-11.3 -14.5 77 -14 -10 1031.7 972.9
12 18.03 З 1 50 км 3/0
[Ac trans]
-12.5 -15.2 80 -15 -15 1032.9 973.7
15 18.03 З 1 н/о ясно -13.6 -15.3 87 -16 -16 1033.5 974.1 -10.5
18 18.03 З 1 н/о ясно -15.0 -16.4 89 -18 -18 1033.2 973.5 -10.5
21 18.03 З 1 н/о 8/5
[Cu hum Ac trans Ci fib]
-16.2 -17.5 90 -19 -19 1033.0 973.0
00 19.03 З 1 н/о 4/3
[Cu hum Ac trans Ci fib]
-17.0 -19.3 82 -20 -20 1033.4 973.2
03 19.03 З 3 50 км 8/0
[Ci fib]
-14.2 -18.3 71 -21 -18 1033.6 974.0 4
06 19.03 З 3 50 км 6/0
[Ci fib]
-11.7 -17.1 64 -18 -11 1033.5 974.5 -17.2
09 19.03 З 1 50 км 8/0
[Ci fib]
-9.8 -15.0 66 -12 -6 1032.7 974.1
12 19.03 З 2 50 км 8/0
[Ac lent Ci fib]
-10.3 -14.7 70 -15 -15 1034.0 975.3
15 19.03 СЗ 1 н/о 10/0
[As trans]
-11.1 -13.6 82 -13 -13 1035.4 976.4 -9.1
18 19.03 штиль 0 н/о 6/0
[Ac As Ci fib]
-13.0 -15.0 85 -13 -13 1036.1 976.6 -9.1
21 19.03 штиль 0 н/о 8/0
[Ci fib]
-15.3 -17.1 86 -15 -15 1036.8 976.8
00 20.03 штиль 0 н/о 6/0
[Ac As Ci fib]
-16.8 -18.6 86 -17 -17 1037.8 977.4
03 20.03 З 1 50 км 10/0
[Ac As]
-14.0 -16.4 82 -16 -15 1038.1 978.3 4
06 20.03 З 2 50 км 10/0
[As op]
-11.4 -15.1 74 -16 -14 1036.6 977.5 -16.9
09 20.03 С 2 50 км 10/0
[Cs]
-8.6 -12.8 72 -13 -8 1034.5 976.1
12 20.03 С 2 50 км 10/4 1000 м
[Sc diur, vesp Ci]
-9.8 -12.4 81 -14 -14 1034.8 976.1
15 20.03 штиль 0 н/о 4/4 1000 м
[Sc diur, vesp]
-14.9 -16.7 86 -15 -15 1035.9 976.0 -8.1
18 20.03 З 1 н/о 8/8 1000 м
[Sc]
-13.8 -15.1 90 -16 -16 1034.5 975.0 -8.1
21 20.03 Ю 1 н/о 4/4 1000 м
[Sc]
-16.0 -17.8 86 -19 -19 1034.1 974.1
00 21.03 СЗ 1 н/о 4/4 1000 м
[Sc]
-18.1 -20.0 85 -21 -21 1034.0 973.5
03 21.03 штиль 0 50 км 8/0
[Ac und]
-16.4 -18.3 85 -16 -14 1033.2 973.1 3
06 21.03 З 1 50 км в посл. час снег 8/8 1000 м
[Sc]
-10.8 -14.7 73 -13 -11 1031.0 972.3 -18.6
09 21.03 СЗ 2 50 км {снег} 9/9 1000 м
[Sc]
-10.4 -14.0 75 -15 -14 1030.3 971.7
12 21.03 СЗ 2 50 км {снег} 8/4 1000 м
[Sc Ci sp]
-10.7 -13.9 77 -15 -15 1029.5 970.9
15 21.03 З 1 н/о 4/0
[Ac lent Ci fib]
-12.5 -15.4 79 -15 -15 1030.4 971.4 -9.8
18 21.03 З 1 н/о ясно -13.0 -15.4 82 -15 -15 1030.3 971.2 -9.8 0.3
21 21.03 З 1 н/о ясно -14.4 -16.4 85 -17 -17 1030.2 970.8
00 22.03 штиль 0 н/о ясно -16.5 -18.4 85 -17 -17 1033.6 973.5
03 22.03 Ю 1 50 км ясно -15.0 -17.4 82 -18 -13 1034.8 975.0 3
06 22.03 З 1 50 км ясно -10.1 -14.0 73 -12 -1 1034.4 975.7 -16.9
09 22.03 С 1 50 км ясно -8.6 -12.8 72 -11 -3 1034.8 976.4
12 22.03 С 2 50 км ясно -9.8 -12.4 81 -14 -14 1035.8 977.1
15 22.03 З 1 н/о ясно -12.0 -13.6 88 -14 -14 1036.9 977.6 -8.1
18 22.03 Ю 2 н/о ясно -12.8 -14.2 89 -17 -17 1036.7 977.3 -8.1
21 22.03 Ю 2 н/о ясно -14.3 -15.9 88 -19 -19 1037.1 977.3
00 23.03 Ю 1 н/о ясно -15.6 -18.0 82 -18 -18 1037.7 977.6
03 23.03 штиль 0 50 км ясно -11.1 -13.4 83 -11 -6 1037.8 978.7 3
06 23.03 Ю 2 50 км ясно -6.3 -9.8 76 -11 -1 1036.2 978.2 -15.7

 

Местоположение метеостанции Жангизтобе (Восточно-Казахстанская область, Казахстан): широта 49.22 долгота 81.22 высота над уровнем моря 455 м.

В архиве по умолчанию представлена погода в Жангизтобе за последнюю неделю. Архивные данные за месяц целиком и за предыдущие месяцы, начиная с января 2011 года, Вы можете получить, выбрав интересующий диапазон дат из раскрывающегося списка и нажав кнопку "Ввод!".

Внимание! Время в таблицах - всемирное. Для получения местного времени необходимо прибавить поправку, которая в Жангизтобе равна 6 ч.

Смотрите также архив погоды в соседних городах и на ближайших метеорологических станциях:

Погода в Кентерлау (Восточно-Казахстанская область, Казахстан) (29 км)
Погода в Шаре (Восточно-Казахстанская область, Казахстан) (42 км)
Погода в Шалабае (Восточно-Казахстанская область, Казахстан) (57 км)
Погода в Кокпектах (Восточно-Казахстанская область, Казахстан) (99 км)
Погода в Кайсенова (Восточно-Казахстанская область, Казахстан) (117 км)
Погода в Таврии (Восточно-Казахстанская область, Казахстан) (121 км)
Погода в Первомайском (Восточно-Казахстанская область, Казахстан) (130 км)
Погода в Шульбинске (Восточно-Казахстанская область, Казахстан) (130 км)
Погода в Глубоком (Восточно-Казахстанская область, Казахстан) (130 км)
Погода в Усть-Каменогорске (Восточно-Казахстанская область, Казахстан) (131 км)

Пояснения к столбцам:

Ветер - указаны скорость ветра в м/с - средняя за 10 мин, порывы в срок и между сроками (в фигурных скобках) и направление, откуда дует ветер: С - северный, СВ - северо-восточный, В - восточный, ЮВ - юго-восточный, Ю - южный, ЮЗ - юго-западный, З - западный, СЗ - северо-западный.
Видимость - горизонтальная дальность видимости в метрах или километрах. При видимости от 1 до 10 км при отсутствии осадков обычно наблюдается дымка, при ухудшении видимости до 1 км и менее - туман. В сухую погоду видимость может ухудшаться дымом, пылью или мглою.
Явления - указаны атмосферные явления, наблюдавшиеся в срок или в последний час перед сроком; фигурными скобками обозначены явления, наблюдавшиеся между сроками (за 1-3 часа до срока); квадратными скобками обозначены град или гололедные отложения с указанием их диаметра в мм.
Облачность - указаны через наклонную черту общая и нижняя облачность в баллах и высота нижней границы облаков в метрах; квадратными скобками обозначены формы облаков: Ci - перистые, Cs - перисто-слоистые, Cc - перисто-кучевые, Ac - высококучевые, As - высокослоистые, Sc - слоисто-кучевые, Ns - слоисто-дождевые, Cu - кучевые, Cb - кучево-дождевые. Подробнее классификацию облаков см. в Атласе облаков (PDF).
T - Температура воздуха - температура, измеренная на высоте 2 м над землей.
Td - Температура точки росы - температура, при понижении до которой содержащийся в воздухе водяной пар достигнет насыщения.
f - Относительная влажность воздуха - влажноcть воздуха, измеренная на высоте 2 м над землей.
Te - Эффективная температура - температура, которую ощущает одетый по сезону человек в тени. Характеристика душности погоды. При расчете учитывается влияние влажности воздуха и скорости ветра на теплоощущения человека.
Tes - Эффективная температура на солнце - температура, которую ощущает человек, с поправкой на солнечный нагрев. Характеристика знойности погоды. Зависит от высоты солнца над горизонтом, облачности и скорости ветра. Ночью, в пасмурную погоду, а также при ветре 12 м/с и более поправка равна нулю.
P - Атмосферное давление - приведенное к уровню моря атмосферное давление.
Po - Атмосферное давление - измеренное на уровне метеостанции атмосферное давление.
Tmin - Минимальная температура - минимум температуры воздуха на высоте 2 м над землей.
Tmax - Максимальная температура - максимум температуры воздуха на высоте 2 м над землей.
R - Количество осадков - Количество выпавших осадков, мм. При наведении курсора мыши на число - период времени, за который выпало указанное количество осадков.
S - Снежный покров - Высота снежного покрова, см. При наведении курсора мыши на число - состояние снежного покрова и степень покрытия местности в баллах.